DELTA 1 DEB, 21969

Orbit data source: Space-Track

DELTA 1 DEB, 21969 is space debris in SSO originally from a launch on Thu, 12 Jun 1975 UTC launched from the Air Force Western Test Range (AFWTR). Debris objects in space refer to the collection of defunct objects orbiting the Earth. Examples of debris include non-operational satellites, rocket bodies, and fragments generated from explosions, collisions, or faulty payload assembly.

Loading next visibility...
Identifier
21969, 1975-052JV
Orbit
SSO
Country
Flag of USUS
Related business
Manufacturer
Unknown
Mission
Spacecraft
Bus & Motor
Unknown
Mass
Unknown
Launch date (UTC)
1975-06-12 (51 years ago)
Launch vehicle
Unknown
Launch site
Air Force Western Test Range (AFWTR)
Object type
Payload
Rocket body
Debris
Shape & HBR
Unknown shape, 0.1 m
Radar Cross Section
Medium (>0.1 m² and <1 m²)

Expand to show TLE details & history
Last TLE update: 2 weeks ago

TLE from 2 weeks ago
0 DELTA 1 DEB
1 21969U 75052JV  26156.89288794  .00000740  00000-0  13580-2 0  9991
2 21969  99.0139 128.9221 0114366  45.1163  11.4842 13.40788414698290
Epoch: 2026-06-05T21:25Z
TLE epoch observation values (Epoch: 2026-06-05T21:25:45.518Z)
Latitude
55.89404°
Longitude
-100.30965°
Altitude
1,031.717 km
Speed
7.382 km/s
True Right ascension
07h 41m 47s
True Declination
55° 44' 24"
Sunlit
Object was in daylight at epoch
Visualization orbit readout
Latitude
Unknown
Longitude
Unknown
Altitude
Unknown
Speed
Unknown
Apparent Right ascension
Unknown
Apparent Declination
Unknown
Sunlit
N/A
Visualization observer readout
Local Sidereal Time
22:01:50
Azimuth
Unknown
Elevation
Unknown
Doppler factor
Unknown
Orbital elements
Apogee altitude
1,189.189 km
Perigee altitude
1,018.057 km
Semi-major axis
7,481.76 km
Eccentricity
0.01144
Inclination
99.0139°
RAAN
128.9221°
Arg. of periapsis
45.1163°
True anomaly
11.74883°
Mean anomaly
11.4842°
Eccentric anomaly
11.61614°
Mean motion
3.3538 °/min
Orbital period
107.34 mins
BSTAR
0.001358
Loading maneuver chart data...
Computing Atmospheric mass density...
Loading historical data...
Loading historical data...
Loading historical data...
Loading historical data...
Loading historical data...
Loading historical data...
Loading historical data...

Documentation

Showing up to 5 results
|